This is the latest recevied weather packets stored in our database for station/object KD2SIG. If no packets are shown the sender has not sent any weather packets the latest 1 day(s).
| Time | Temp. | Humidity | Pressure | Rain* | Wind** | Luminosity | Snow |
|---|---|---|---|---|---|---|---|
| 1777983419 | 19.44° C | 68% | 1002.6 hPa | 0 mm | 1.34 m/s, 206° | 258 W/m² | - |
| 1777983115 | 18.89° C | 70% | 1002.8 hPa | 0 mm | 2.68 m/s, 225° | 229 W/m² | - |
| 1777982811 | 18.33° C | 70% | 1002.6 hPa | 0 mm | 2.68 m/s, 228° | 161 W/m² | - |
| 1777982507 | 17.78° C | 71% | 1002.9 hPa | 0 mm | 2.24 m/s, 221° | 109 W/m² | - |
| 1777982201 | 17.78° C | 73% | 1002.6 hPa | 0 mm | 0.89 m/s, 244° | 69 W/m² | - |
| 1777981899 | 17.78° C | 72% | 1002.7 hPa | 0 mm | 1.79 m/s, 248° | 72 W/m² | - |
| 1777981596 | 17.78° C | 72% | 1002.7 hPa | 0 mm | 3.58 m/s, 229° | 73 W/m² | - |
| 1777981292 | 17.78° C | 73% | 1002.5 hPa | 0 mm | 1.34 m/s, 277° | 49 W/m² | - |
| 1777980989 | 17.78° C | 72% | 1002.6 hPa | 0 mm | 2.24 m/s, 179° | 59 W/m² | - |
| 1777980686 | 17.78° C | 72% | 1002.4 hPa | 0 mm | 1.34 m/s, 220° | 51 W/m² | - |
| 1777980382 | 17.78° C | 73% | 1002.4 hPa | 0 mm | 0.45 m/s, 225° | 39 W/m² | - |
| 1777980080 | 17.78° C | 73% | 1002.4 hPa | 0 mm | 1.79 m/s, 287° | 30 W/m² | - |
| 1777979774 | 17.78° C | 74% | 1002.4 hPa | 0 mm | 1.79 m/s, 256° | 51 W/m² | - |
| 1777979470 | 17.22° C | 74% | 1002.2 hPa | 0 mm | 1.34 m/s, 179° | 52 W/m² | - |
| 1777979166 | 17.22° C | 76% | 1002.1 hPa | 0 mm | 3.13 m/s, 212° | 75 W/m² | - |
| 1777978864 | 16.67° C | 77% | 1002.3 hPa | 0 mm | 1.34 m/s, 244° | 76 W/m² | - |
| 1777978560 | 16.11° C | 79% | 1002.3 hPa | 0 mm | 0.45 m/s, 239° | 58 W/m² | - |
| 1777978256 | 15.56° C | 81% | 1002 hPa | 0 mm | 1.34 m/s, 200° | 46 W/m² | - |
| 1777977953 | 15.56° C | 82% | 1002.2 hPa | 0 mm | 0.45 m/s, 231° | 37 W/m² | - |
| 1777977651 | 15.56° C | 84% | 1002.2 hPa | 0 mm | 0.89 m/s, 236° | 27 W/m² | - |
| 1777977347 | 15.56° C | 85% | 1002.1 hPa | 0 mm | 0 m/s | 23 W/m² | - |
| 1777977044 | 15.56° C | 84% | 1002.2 hPa | 0 mm | 0 m/s | 28 W/m² | - |
| 1777976741 | 15° C | 87% | 1002.2 hPa | 0 mm | 0 m/s | 12 W/m² | - |
| 1777976439 | 15° C | 87% | 1002.1 hPa | 0 mm | 0.45 m/s, 228° | 8 W/m² | - |
| 1777976137 | 15° C | 87% | 1001.9 hPa | 0 mm | 0.89 m/s, 232° | 5 W/m² | - |
* Rain latest hour (hover to see other rain measurements)
** Current wind speed in m/s (hover to see current wind gust speed)